Theta_e
306 309 312 316 318 318 314 315 312 314 316 314 313 315 315 317 319 322 324 325 326 329 327 326 328 328 326 326 327 327 326 326 327 325 324 326 327 327 328 330 329 331 333
304 308 311 311 315 316 316 315 314 312 314 315 315 316 316 318 318 320 322 325 327 328 327 327 327 328 326 326 326 326 325 325 326 322 322 317 321 324 325 326 327 327 329
303 306 310 308 312 314 312 316 316 311 313 315 316 316 317 319 318 319 322 324 328 328 327 326 328 328 328 326 325 325 324 321 324 323 318 316 314 317 321 321 323 323 324
304 307 309 307 310 315 316 316 316 315 314 311 313 313 313 314 317 319 323 326 329 328 327 327 327 327 328 327 326 327 324 324 319 320 323 323 321 314 311 318 317 317 317
304 307 308 309 311 314 318 318 317 317 313 314 312 314 314 315 318 321 322 324 326 329 329 327 327 326 326 328 328 325 325 323 322 321 320 321 318 318 316 309 310 312 312
303 307 310 311 312 311 318 317 315 316 319 316 313 313 315 316 317 316 316 315 319 324 327 329 328 328 327 327 328 327 325 323 323 323 322 320 318 317 314 309 306 306 308
302 306 308 308 310 311 314 317 316 315 316 319 315 312 312 312 312 312 314 315 316 319 324 326 327 328 326 326 326 325 325 324 323 321 320 321 321 320 317 313 303 303 303
304 306 307 307 310 312 312 317 316 314 314 315 314 314 316 315 313 313 312 313 315 316 320 326 326 326 326 326 323 322 323 324 322 321 322 321 320 320 316 308 301 297 300
305 305 306 308 307 312 312 314 314 312 313 313 312 311 313 314 314 314 313 312 314 318 316 317 318 319 321 322 320 320 319 319 319 320 321 319 316 315 309 305 302 301 301
305 305 307 308 308 310 311 314 314 312 313 311 311 312 313 314 313 314 312 313 313 317 318 319 319 319 318 317 318 318 318 319 318 316 313 311 309 306 304 303 308 306 303
304 305 307 308 310 310 311 313 313 314 313 312 313 313 313 313 312 312 313 313 313 315 316 317 318 317 316 318 320 319 320 319 318 318 318 316 314 309 306 307 313 309 308
305 306 308 308 310 310 311 311 312 314 314 315 313 313 314 311 310 310 311 313 313 314 315 316 317 317 317 317 317 315 315 315 314 314 314 313 317 312 312 312 312 312 311
304 306 307 309 310 310 310 311 311 312 315 315 313 313 312 309 308 309 310 311 311 312 313 314 315 316 316 314 312 311 310 308 308 309 309 309 310 308 307 307 309 307 312
306 307 307 309 310 311 310 311 308 310 316 315 314 312 309 308 307 309 310 310 309 309 309 311 313 314 314 313 310 308 304 302 301 301 302 305 307 307 306 306 306 306 309
306 307 308 308 310 310 310 311 308 312 316 316 314 312 311 308 307 309 309 309 308 309 307 306 307 310 312 312 306 303 299 296 296 296 298 301 306 309 307 304 302 304 303
306 307 309 309 310 311 309 310 309 312 316 316 315 316 313 310 307 308 308 308 307 305 305 304 304 305 309 303 304 301 297 295 293 293 293 296 302 303 304 304 304 303 301
306 307 309 310 311 312 311 310 310 312 315 317 319 318 315 310 308 308 308 305 303 303 302 301 301 302 304 301 301 302 297 293 292 291 291 292 297 299 298 299 301 302 302
307 308 309 310 312 312 312 313 312 313 315 318 319 319 315 311 309 308 307 306 302 301 300 300 300 300 301 300 300 301 298 296 295 295 295 292 292 294 296 293 293 294 295
310 309 311 311 312 312 313 313 312 314 316 318 318 320 317 314 310 308 307 307 304 302 301 301 300 299 299 298 300 303 303 302 301 302 301 296 295 294 294 292 290 289 290
312 310 310 311 312 312 313 313 313 313 315 317 319 321 319 316 312 309 308 309 307 306 304 301 300 300 299 296 298 301 302 300 300 299 300 300 298 294 293 289 288 287 287
313 312 310 310 311 313 313 312 314 313 317 319 320 320 320 318 316 313 310 310 310 309 306 303 301 299 297 298 296 298 302 302 299 298 296 295 296 293 292 290 286 286 286
314 311 310 311 311 313 313 313 313 316 318 320 320 320 320 321 319 316 314 311 311 309 307 306 304 304 300 297 295 295 298 299 300 299 297 294 293 292 291 292 291 291 290
315 312 311 310 311 312 313 312 313 316 318 318 318 319 320 321 320 318 316 314 312 311 309 308 308 308 309 304 297 294 294 295 298 297 296 294 292 292 290 291 291 292 290
315 313 312 310 310 312 313 313 314 315 316 316 314 317 318 319 320 321 320 318 315 313 311 310 310 310 309 309 306 302 295 295 297 296 294 294 292 291 291 289 291 291 292
317 314 312 311 311 313 313 313 313 315 315 315 315 312 316 317 319 321 321 320 320 317 315 314 313 311 310 311 308 306 301 297 296 292 289 288 287 287 288 287 287 288 288
317 314 313 313 312 315 314 314 314 316 314 313 313 314 313 315 318 320 320 307 307 304 302 304 312 316 307 301 299 299 299 296 293 292 289 290 290 290 289 288 288 286 289
Wind_Speed
7 5 6 5 4 1 3 4 4 3 3 2 2 3 3 3 3 4 5 5 11 7 3 5 7 5 7 8 9 9 12 9 11 9 10 10 9 8 5 4 5 4 5
6 5 6 4 3 1 0 3 3 2 2 1 2 1 1 2 2 3 5 6 10 7 5 9 7 8 8 9 8 9 7 8 5 10 10 9 7 6 6 4 5 3 5
9 7 7 5 4 2 2 2 2 2 1 4 3 2 2 3 4 4 4 5 7 4 3 5 7 7 6 6 8 7 9 6 5 4 4 8 5 6 3 5 4 5 5
6 7 7 5 4 5 2 4 3 2 1 3 4 4 2 2 2 2 4 6 8 5 2 3 6 6 5 7 4 4 4 9 5 2 5 9 6 4 5 3 4 5 4
10 10 9 8 6 7 5 3 3 1 3 4 4 4 4 2 3 4 6 7 5 6 4 4 5 5 3 7 8 5 5 3 3 3 4 10 5 5 4 4 3 4 3
9 9 8 7 6 3 6 4 5 3 5 6 7 7 6 4 4 5 4 3 3 3 4 8 6 5 4 5 7 5 5 4 4 4 6 7 5 6 4 4 3 3 1
9 9 9 7 6 6 7 5 5 2 5 7 8 7 6 6 6 5 4 5 3 5 4 5 6 5 5 5 5 5 5 5 4 6 4 2 4 4 4 5 3 3 1
9 11 10 8 8 8 7 6 6 4 6 7 6 6 7 4 4 5 4 4 3 3 7 5 3 5 6 6 6 4 4 6 5 8 5 4 4 4 4 5 6 4 2
12 12 9 8 8 8 8 8 7 5 6 7 6 6 6 7 5 5 4 3 4 4 7 7 6 6 6 6 8 6 6 6 5 6 6 5 4 5 4 4 3 5 4
12 10 9 8 6 7 6 7 8 8 7 6 6 5 6 6 6 6 5 6 5 6 7 7 7 7 7 8 9 8 7 10 5 4 7 4 3 5 4 5 3 3 5
14 11 9 8 8 6 7 8 7 8 6 6 5 6 5 6 6 6 4 4 5 7 7 7 7 7 8 8 11 10 11 11 9 7 8 7 6 5 4 4 2 3 3
14 11 11 9 8 8 7 8 7 8 7 6 6 6 6 5 6 5 5 4 5 5 6 6 7 7 7 8 10 10 8 10 9 7 10 7 7 7 5 4 4 4 3
11 11 9 10 9 8 7 8 7 8 7 7 7 6 5 5 5 5 5 5 6 6 6 8 8 7 7 9 7 8 8 8 7 6 8 6 7 6 3 3 5 4 3
17 15 11 10 10 8 8 8 7 7 8 8 8 7 7 6 4 4 6 7 6 7 7 7 6 6 7 7 7 8 7 7 6 6 6 6 6 7 5 5 5 5 6
16 17 15 12 11 9 7 9 7 8 9 9 8 8 7 6 5 5 6 7 7 6 7 8 6 6 7 5 8 7 7 8 7 6 5 5 6 7 4 4 4 6 5
19 19 17 15 15 13 9 10 8 9 10 10 9 7 7 7 6 6 7 7 7 7 7 7 7 6 4 8 10 8 7 6 7 7 5 5 8 9 9 8 5 3 10
20 21 21 18 16 15 11 12 10 8 10 10 9 9 7 7 6 6 7 7 7 6 7 6 7 6 5 7 10 11 6 6 6 6 5 4 3 5 6 7 9 8 7
22 20 19 18 17 15 12 12 11 12 11 11 11 10 10 8 7 7 7 6 5 6 5 5 6 6 4 9 11 9 7 5 5 5 6 5 6 4 6 5 5 4 2
21 21 20 20 17 17 14 14 14 14 12 13 12 12 11 10 8 8 8 6 6 5 5 5 7 7 5 9 12 10 6 5 7 6 7 7 7 8 7 6 5 2 3
20 18 19 18 18 18 16 15 17 16 15 14 14 13 12 12 11 9 9 5 5 6 5 6 7 8 8 10 13 10 5 7 5 5 7 11 8 8 9 7 6 6 4
21 18 18 21 23 20 18 18 17 19 18 16 15 14 13 14 13 11 6 7 6 6 6 7 6 7 8 9 14 14 7 7 5 5 5 5 10 11 11 8 6 6 6
15 16 19 20 19 20 19 19 20 19 18 17 16 15 14 12 9 13 10 7 8 8 7 7 5 6 7 10 12 13 12 8 8 7 4 5 10 12 12 8 9 8 6
18 19 20 20 17 20 22 22 20 18 18 17 18 16 15 14 12 12 10 7 9 8 8 7 7 7 7 7 14 15 15 8 5 4 7 9 12 12 9 10 10 9 5
17 17 18 19 18 20 22 26 19 18 19 19 15 16 16 14 12 10 10 10 10 9 8 8 10 10 7 8 8 9 8 10 8 8 4 6 8 10 9 8 8 5 6
15 18 21 19 22 22 24 21 19 19 19 18 16 12 13 15 14 13 12 12 13 15 13 13 12 10 10 13 16 13 11 11 12 6 3 3 2 2 3 4 5 5 5
13 15 19 21 21 21 22 20 19 20 20 17 14 13 9 10 12 12 11 14 12 19 19 19 14 12 18 9 18 20 19 12 15 4 5 6 6 7 8 8 7 4 8
Wind_Direction
185 161 115 132 139 324 16 46 100 358 25 348 331 344 339 325 352 19 18 45 85 122 98 105 94 99 104 120 119 116 124 116 124 119 105 106 109 96 87 78 70 59 53
179 146 138 128 104 92 261 45 93 25 326 300 275 223 308 313 307 359 43 35 100 99 103 119 117 104 110 107 108 122 119 123 139 133 121 128 117 86 72 53 62 74 91
177 145 148 162 128 131 104 109 128 176 26 6 35 33 14 354 5 23 31 28 88 101 48 91 116 112 109 95 112 116 123 101 105 103 155 132 134 117 79 62 76 57 61
171 145 157 163 168 172 185 96 99 160 244 57 64 62 76 74 337 60 66 46 66 71 77 95 128 110 126 111 106 123 129 135 160 67 25 81 113 114 112 52 54 51 61
169 156 165 170 205 155 171 146 106 59 69 71 110 87 70 14 42 49 70 78 103 151 235 153 126 109 116 135 144 145 139 148 127 86 117 110 78 71 97 104 74 41 11
176 156 172 169 194 162 157 176 124 32 50 71 81 114 98 86 55 46 42 49 73 91 98 100 140 155 135 141 148 167 151 130 95 92 134 135 146 145 121 102 103 137 202
163 153 168 177 187 189 180 182 136 95 89 77 82 93 96 93 92 79 68 58 48 70 72 66 92 137 132 138 136 151 147 165 138 142 143 133 125 117 104 117 133 129 103
161 161 177 176 188 202 183 178 156 146 111 107 90 85 90 84 72 79 75 59 62 81 112 75 78 91 86 106 135 143 134 121 132 135 129 128 134 139 132 139 135 79 71
168 170 177 182 179 200 183 169 159 154 133 127 116 95 96 89 91 75 58 58 48 64 73 105 103 90 79 86 89 97 102 115 113 120 120 118 123 120 119 120 135 133 127
169 172 172 186 184 185 164 165 166 156 160 138 127 120 114 105 92 86 73 67 57 64 70 66 68 69 68 64 78 80 76 86 70 89 95 96 84 95 119 129 125 113 130
176 174 173 184 176 178 159 169 165 152 158 148 138 126 122 114 107 103 99 82 76 74 69 81 79 75 66 59 79 76 80 81 79 67 84 85 124 129 125 129 133 142 123
172 172 171 171 167 184 148 167 178 163 167 163 146 137 132 123 110 107 119 124 92 74 94 90 86 77 76 72 78 78 75 88 81 73 80 66 85 77 91 95 97 140 149
163 171 166 172 173 185 162 172 187 167 158 149 140 136 133 126 128 123 122 122 116 107 87 83 88 98 96 89 78 90 85 80 85 87 94 102 100 89 88 118 92 83 81
171 173 175 178 178 187 171 173 193 162 156 149 143 143 155 156 148 133 125 124 126 110 97 90 96 96 98 97 96 96 88 78 68 66 75 83 97 122 123 95 110 109 100
175 180 177 182 183 188 176 177 182 159 155 151 148 161 163 152 142 133 125 116 109 112 113 111 99 103 107 117 112 107 112 112 100 83 85 90 119 127 121 118 112 120 100
186 183 181 183 183 189 179 180 178 166 157 155 161 160 151 147 146 143 132 115 113 113 110 106 114 102 95 119 113 116 113 105 113 115 88 73 79 76 77 84 102 142 142
189 185 184 186 185 187 176 181 179 162 160 159 160 157 152 151 150 135 124 123 130 119 116 117 121 130 138 141 126 124 129 135 142 142 139 116 95 102 101 77 73 72 65
192 188 185 186 188 185 178 177 171 169 166 165 166 160 158 158 150 139 140 133 134 142 144 151 150 142 161 168 150 140 141 144 163 168 178 165 170 175 146 122 104 85 81
192 192 188 182 184 184 182 171 175 173 171 173 173 169 164 159 156 159 160 159 147 155 169 168 168 164 182 177 168 157 162 174 200 203 200 189 191 205 176 150 145 105 21
191 186 183 182 183 187 182 175 179 179 181 179 180 171 168 167 173 172 171 167 158 167 160 173 191 193 191 197 182 166 163 185 204 222 219 207 201 194 179 165 165 170 208
190 186 173 184 190 183 179 184 183 188 185 181 180 176 175 176 178 173 165 162 159 155 179 190 204 209 206 210 200 190 182 196 196 208 216 218 206 187 186 173 176 195 162
187 184 182 189 184 184 184 190 193 186 183 183 183 182 180 183 175 177 178 168 160 173 188 191 215 226 225 222 219 210 212 178 195 215 204 203 195 196 187 177 183 175 154
194 186 188 187 186 186 189 195 196 182 180 182 189 185 187 188 179 178 181 170 179 185 196 197 212 225 218 223 218 212 213 213 198 202 207 196 199 191 185 191 188 179 180
191 188 184 186 187 191 193 205 185 186 184 187 177 187 187 192 186 188 188 186 188 197 201 205 216 221 213 213 206 212 203 203 205 181 164 187 182 191 191 176 200 194 186
192 182 181 187 195 192 200 197 188 182 189 193 193 172 191 192 193 195 190 196 210 197 198 211 213 208 222 225 209 195 196 203 211 139 137 177 144 187 212 225 215 200 186
178 186 196 190 196 196 200 192 188 184 186 189 194 198 176 186 196 201 210 229 225 211 214 214 198 218 232 188 188 197 207 194 144 176 185 209 206 207 206 212 219 206 209